Location: ????????
(55.3939°N, 37.4780°E)
Time: 01:33:02
(UTC+00:00)

Cosmos 2173 Rocket - Pass Details

Date: 14 April 2026
Orbit: 944 x 998 km, 83.0° (Epoch: 20 May)

Event Time Altitude Azimuth Distance (km) Brightness Sun altitude
Exits shadow 20:38:03 51° 139° (SE) 1,179 4.0 -24.0°
Maximum altitude 20:39:15 61° 94° (E) 1,073 4.0 -24.1°
Drops below altitude 10° 20:45:15 10° 16° (NNE) 2,681 7.1 -24.3°
Sets 20:47:46 0° 13° (NNE) 3,634 8.1 -24.3°
